WB4FAY-4 Weather Reports


time (UTC)temp
F
wind
direction
speed
knots
gust
knots
rain 1hr
in
rain 24hr
in
rain mn
in
humidity
%
barometer
mb
20220524035117 72 131 0.0 2.6 0.00 0.01 1.17 82 1018.3
20220524034617 72 110 0.0 2.6 0.00 0.01 1.17 81 1018.3
20220524034117 72 73 0.0 2.6 0.00 0.01 1.17 81 1018.3
20220524033622 72 134 0.0 3.5 0.00 0.01 1.17 81 1018.3
20220524033117 73 90 0.0 2.6 0.00 0.01 1.17 81 1018.3
20220524032617 73 349 0.0 2.6 0.00 0.01 1.17 81 1018.3
20220524032117 73 113 0.9 3.5 0.00 0.01 1.17 81 1018.4
20220524031617 73 83 0.9 4.3 0.00 0.01 1.17 81 1018.2
20220524031117 73 103 0.0 2.6 0.00 0.01 1.17 81 1018.4
20220524030617 73 96 0.0 1.7 0.00 0.01 1.17 81 1018.4
20220524030116 73 103 0.0 1.7 0.00 0.01 1.17 81 1018.3
20220524025617 73 66 0.0 3.5 0.00 0.01 1.17 81 1018.2
20220524025117 73 49 0.9 3.5 0.00 0.01 1.17 81 1018.2
20220524024617 73 104 0.0 1.7 0.00 0.01 1.17 81 1018.0
20220524024117 73 85 1.7 2.6 0.00 0.01 1.17 81 1018.1
20220524023617 74 86 0.0 2.6 0.00 0.01 1.17 81 1018.0
20220524023117 74 83 0.9 3.5 0.00 0.01 1.17 81 1017.9
20220524022617 74 20 0.9 2.6 0.00 0.01 1.17 81 1017.9
20220524022117 74 13 0.0 2.6 0.00 0.01 1.17 81 1017.8
20220524021617 74 340 0.9 5.2 0.00 0.01 1.17 81 1017.7
20220524021117 74 79 0.9 3.5 0.00 0.01 1.17 81 1017.7
20220524020617 74 58 1.7 4.3 0.00 0.01 1.17 81 1017.7
20220524020117 74 16 0.0 4.3 0.00 0.01 1.17 81 1017.7
20220524015617 74 349 0.0 4.3 0.00 0.01 1.17 81 1017.6
20220524015117 74 23 0.9 1.7 0.00 0.01 1.17 81 1017.6
20220524014617 74 31 0.9 1.7 0.00 0.01 1.17 81 1017.7
20220524014117 74 16 0.9 0.9 0.00 0.01 1.17 81 1017.7
20220524013618 74 0 0.0 0.0 0.00 0.01 1.17 80 1017.8
20220524013117 74 79 0.0 0.9 0.00 0.01 1.17 80 1017.8
20220524012617 74 99 0.0 0.9 0.00 0.01 1.17 79 1017.7
20220524012117 75 256 0.0 0.9 0.00 0.01 1.17 79 1017.7
20220524011617 75 107 0.9 0.9 0.00 0.01 1.17 78 1017.6
20220524011117 75 337 0.0 1.7 0.00 0.01 1.17 77 1017.6
20220524010617 75 0 0.0 0.0 0.00 0.01 1.17 77 1017.6
20220524010117 75 69 0.0 0.9 0.00 0.01 1.17 77 1017.5
20220524005617 76 103 0.0 1.7 0.00 0.01 1.17 77 1017.6
20220524005122 76 308 0.9 0.9 0.00 0.01 1.17 76 1017.5
20220524004621 76 31 0.0 0.9 0.00 0.01 1.17 76 1017.4
20220524004120 76 0 0.0 0.0 0.00 0.01 1.17 76 1017.4
20220524003620 76 0 0.0 0.0 0.00 0.01 1.17 75 1017.4
20220524003120 76 48 0.0 0.9 0.00 0.01 1.17 74 1017.5
20220524002620 76 76 0.0 2.6 0.00 0.01 1.17 74 1017.4
20220524002120 76 0 0.9 0.0 0.00 0.01 1.17 74 1017.3
20220524001620 77 35 0.0 2.6 0.00 0.01 1.17 73 1017.3
20220524001120 77 106 0.9 2.6 0.00 0.01 1.17 73 1017.3
20220524000620 77 308 2.6 1.7 0.00 0.01 1.17 73 1017.2
20220524000120 77 76 0.0 4.3 0.00 0.01 1.17 73 1017.2
20220523235620 77 103 0.9 5.2 0.00 0.01 1.17 72 1017.1
20220523235120 77 20 1.7 4.3 0.00 0.01 1.17 72 1017.1
20220523234620 77 326 1.7 3.5 0.00 0.01 1.17 72 1016.9
20220523234120 77 56 0.9 5.2 0.00 0.01 1.17 72 1017.1
20220523233620 78 8 2.6 3.5 0.00 0.01 1.17 72 1017.1
20220523233120 78 73 0.9 3.5 0.00 0.01 1.17 73 1016.9
20220523232620 78 92 0.9 3.5 0.00 0.01 1.17 73 1016.9
20220523232120 78 110 0.9 4.3 0.00 0.01 1.17 72 1016.8
20220523231620 78 65 0.9 5.2 0.00 0.01 1.17 72 1016.8
20220523231120 78 83 0.9 5.2 0.00 0.01 1.17 72 1016.8
20220523230620 78 80 1.7 3.5 0.00 0.01 1.17 71 1016.8
20220523230119 78 56 0.9 3.5 0.00 0.01 1.17 71 1016.8
20220523225620 78 73 0.9 4.3 0.00 0.01 1.17 70 1016.8
20220523225119 78 40 1.7 3.5 0.00 0.01 1.17 70 1016.6
20220523224619 78 332 0.0 7.0 0.00 0.01 1.17 69 1016.6
20220523224119 78 109 3.5 7.0 0.00 0.01 1.17 68 1016.6
20220523223620 78 80 4.3 7.8 0.00 0.01 1.17 68 1016.5
20220523223119 78 23 0.9 4.3 0.00 0.01 1.17 71 1016.6
20220523222619 78 24 2.6 4.3 0.00 0.01 1.17 70 1016.6
20220523222119 78 337 3.5 4.3 0.00 0.01 1.17 72 1016.6
20220523221619 78 38 2.6 5.2 0.00 0.01 1.17 72 1016.5
20220523221119 78 52 4.3 6.1 0.00 0.01 1.17 71 1016.6
20220523220619 78 66 4.3 5.2 0.00 0.01 1.17 74 1016.6
20220523220119 77 342 4.3 7.0 0.00 0.01 1.17 73 1016.5
20220523215619 77 14 1.7 5.2 0.00 0.01 1.17 71 1016.6
20220523215119 77 66 0.9 4.3 0.00 0.01 1.17 76 1016.6
20220523214619 78 82 0.9 4.3 0.00 0.01 1.17 76 1016.6
20220523214119 78 86 0.9 2.6 0.00 0.01 1.17 76 1016.7
20220523213620 78 120 0.9 3.5 0.00 0.01 1.17 76 1016.7
20220523213118 78 75 2.6 3.5 0.00 0.01 1.17 76 1016.7
20220523212619 78 93 1.7 3.5 0.00 0.01 1.17 77 1016.6
20220523212118 78 99 0.0 1.7 0.00 0.01 1.17 78 1016.7
20220523211618 77 117 0.9 3.5 0.00 0.01 1.17 78 1016.7
20220523211118 77 92 0.0 4.3 0.00 0.01 1.17 78 1016.7
20220523210618 77 360 1.7 2.6 0.00 0.01 1.17 78 1016.8
20220523210118 77 85 0.0 5.2 0.00 0.01 1.17 79 1016.8
20220523205619 76 278 1.7 0.0 0.00 0.01 1.17 80 1016.9
20220523205118 76 284 0.0 2.6 0.00 0.01 1.17 81 1016.8
20220523204618 76 253 0.9 1.7 0.00 0.01 1.17 81 1016.9
20220523204118 76 309 0.9 0.9 0.00 0.01 1.17 82 1016.9
20220523203618 77 263 0.0 0.9 0.00 0.01 1.17 83 1016.9
20220523203118 77 227 0.0 1.7 0.00 0.01 1.17 82 1017.1
20220523202618 78 193 0.9 2.6 0.00 0.01 1.17 79 1017.2
20220523202118 78 13 0.9 0.9 0.00 0.01 1.17 75 1017.1
20220523201618 79 42 0.0 4.3 0.00 0.01 1.17 72 1017.1
20220523201118 79 356 1.7 4.3 0.00 0.01 1.16 71 1017.2
20220523200618 79 4 0.9 9.6 0.00 0.01 1.16 71 1017.1
20220523200117 79 354 3.5 7.8 0.00 0.01 1.16 70 1017.2
20220523195618 80 337 2.6 5.2 0.00 0.01 1.16 70 1017.2
20220523195118 81 354 3.5 7.0 0.00 0.01 1.16 67 1017.1
20220523194617 81 24 0.9 5.2 0.00 0.01 1.16 64 1017.3
20220523194117 80 182 2.6 3.5 0.00 0.01 1.16 63 1017.2
20220523193617 80 3 1.7 2.6 0.00 0.01 1.16 66 1017.2
20220523193117 80 260 1.7 4.3 0.00 0.01 1.16 69 1017.1
20220523192622 80 332 3.5 3.5 0.00 0.01 1.16 68 1017.3
20220523192117 80 346 0.9 3.5 0.00 0.01 1.16 68 1017.3
20220523191617 80 360 0.0 5.2 0.00 0.01 1.16 67 1017.3
20220523191117 80 333 2.6 4.3 0.00 0.01 1.16 69 1017.3
20220523190617 79 196 0.9 3.5 0.00 0.01 1.16 69 1017.4
20220523190117 79 268 1.7 3.5 0.00 0.01 1.16 69 1017.5
20220523185617 79 127 0.9 3.5 0.00 0.01 1.16 71 1017.5
20220523185117 79 302 0.9 3.5 0.00 0.01 1.16 70 1017.5
20220523184617 79 285 0.0 3.5 0.00 0.01 1.16 71 1017.6
20220523184117 79 52 1.7 6.1 0.00 0.01 1.16 71 1017.6
20220523183617 79 188 4.3 3.5 0.00 0.01 1.16 72 1017.6
20220523183117 79 301 0.9 3.5 0.00 0.01 1.16 73 1017.6
20220523182617 78 281 1.7 3.5 0.00 0.01 1.16 73 1017.6
20220523182118 78 291 1.7 4.3 0.00 0.01 1.16 72 1017.6
20220523181617 78 192 1.7 5.2 0.00 0.01 1.16 72 1017.6
20220523181117 77 7 0.9 5.2 0.00 0.01 1.16 75 1017.7
20220523180617 77 270 0.9 8.7 0.00 0.01 1.16 74 1017.7
20220523180117 77 353 0.0 5.2 0.00 0.01 1.16 76 1017.7
20220523175617 76 343 3.5 5.2 0.00 0.01 1.16 80 1017.7
20220523175117 76 282 0.9 2.6 0.00 0.01 1.16 80 1017.7
20220523174617 76 119 0.9 2.6 0.00 0.01 1.16 81 1017.8
20220523174117 76 116 1.7 4.3 0.00 0.01 1.16 81 1017.9
20220523173617 76 284 0.9 2.6 0.00 0.01 1.16 81 1017.9
20220523173117 75 193 0.9 3.5 0.00 0.01 1.16 81 1018.0
20220523172617 76 178 2.6 2.6 0.00 0.01 1.16 82 1018.1
20220523172117 75 212 0.9 3.5 0.00 0.01 1.16 83 1018.1
20220523171618 75 18 0.0 4.3 0.00 0.01 1.16 84 1018.2
20220523171118 75 196 0.9 2.6 0.00 0.01 1.16 84 1018.2
20220523170618 75 176 0.0 4.3 0.00 0.01 1.16 85 1018.3
20220523170118 74 248 0.9 3.5 0.00 0.01 1.16 85 1018.3
20220523165618 74 281 0.9 7.8 0.00 0.01 1.16 85 1018.4
20220523165118 74 301 1.7 3.5 0.00 0.01 1.16 85 1018.5
20220523164618 75 328 0.0 2.6 0.00 0.01 1.16 85 1018.5
20220523164118 74 316 0.0 5.2 0.00 0.01 1.16 85 1018.4
20220523163618 74 312 1.7 3.5 0.00 0.01 1.16 86 1018.3
20220523163118 74 205 0.0 3.5 0.00 0.01 1.16 85 1018.3
20220523162618 74 184 2.6 1.7 0.00 0.01 1.16 85 1018.3
20220523162118 74 291 0.0 3.5 0.00 0.01 1.16 85 1018.3
20220523161618 74 306 0.0 4.3 0.00 0.01 1.16 86 1018.3
20220523161118 74 268 0.9 2.6 0.00 0.01 1.16 88 1018.3
20220523160618 74 359 1.7 4.3 0.00 0.01 1.16 89 1018.3
20220523160118 74 347 0.0 4.3 0.00 0.01 1.16 90 1018.3
20220523155618 73 339 0.0 3.5 0.00 0.01 1.16 91 1018.2
20220523155118 73 191 0.9 5.2 0.00 0.01 1.16 92 1018.2
20220523154617 72 203 2.6 2.6 0.00 0.01 1.16 92 1018.1
20220523154118 72 193 0.0 2.6 0.00 0.01 1.16 93 1018.0
20220523153118 72 176 0.9 1.7 0.00 0.01 1.16 93 1018.1
20220523152617 72 305 0.0 5.2 0.00 0.01 1.16 93 1018.1
20220523152118 72 354 0.0 0.9 0.00 0.01 1.16 94 1018.1
20220523151617 72 311 0.0 1.7 0.00 0.01 1.16 94 1018.1
20220523151118 71 20 0.0 0.0 0.00 0.01 1.16 94 1018.0
20220523150618 71 199 0.0 2.6 0.00 0.01 1.16 94 1018.0
20220523150118 71 188 0.9 1.7 0.00 0.01 1.16 94 1018.1
20220523145618 71 184 0.0 3.5 0.00 0.01 1.16 94 1018.1
20220523145118 71 193 0.9 3.5 0.00 0.01 1.16 94 1018.1
20220523144617 71 0 0.9 0.0 0.00 0.01 1.16 95 1018.2
20220523144117 70 0 0.0 0.0 0.00 0.01 1.16 95 1018.2
20220523143617 70 195 0.0 2.6 0.00 0.01 1.16 95 1018.1
20220523143117 70 0 0.9 0.0 0.00 0.01 1.16 95 1018.1
20220523142617 70 263 0.0 0.9 0.00 0.01 1.16 95 1018.1
20220523142117 70 0 0.0 0.0 0.00 0.01 1.16 95 1018.1
20220523141617 70 320 0.0 2.6 0.00 0.01 1.16 95 1018.1
20220523141117 70 344 0.0 3.5 0.00 0.01 1.16 95 1018.0
20220523140617 70 267 0.0 0.9 0.00 0.01 1.16 95 1018.0
20220523140117 70 343 0.9 3.5 0.00 0.01 1.16 95 1017.8
20220523135617 69 352 0.9 3.5 0.00 0.01 1.16 94 1017.7
20220523135117 69 78 0.0 2.6 0.00 0.01 1.16 95 1017.6
20220523134618 69 93 0.0 3.5 0.00 0.01 1.16 95 1017.4
20220523134117 69 0 0.0 0.0 0.00 0.01 1.16 95 1017.3
20220523133617 69 4 0.0 4.3 0.00 0.01 1.16 95 1017.1
20220523133117 69 45 0.0 5.2 0.00 0.01 1.16 95 1016.9
20220523132617 68 83 0.9 1.7 0.00 0.01 1.15 95 1016.7
20220523132117 68 360 0.0 2.6 0.00 0.01 1.15 95 1016.6
20220523131617 68 18 2.6 2.6 0.00 0.01 1.14 95 1016.5
20220523131117 68 0 0.0 0.0 0.00 0.01 1.14 95 1016.4
20220523130617 68 0 0.0 0.0 0.00 0.01 1.14 95 1016.3
20220523130119 68 97 0.0 4.3 0.00 0.01 1.13 95 1016.3
20220523125619 68 92 0.0 2.6 0.00 0.01 1.13 95 1016.3
20220523125119 68 356 1.7 4.3 0.00 0.01 1.13 95 1016.3
20220523124620 68 0 0.0 2.6 0.00 0.01 1.12 95 1016.3
20220523124119 68 69 0.0 4.3 0.00 0.01 1.12 95 1016.2
20220523123619 68 45 0.0 2.6 0.00 0.01 1.11 95 1016.2
20220523123119 68 10 1.7 3.5 0.00 0.01 1.11 95 1016.3
20220523122619 68 92 2.6 3.5 0.00 0.01 1.10 95 1016.3
20220523122119 68 89 1.7 4.3 0.00 0.01 1.10 95 1016.4
20220523121619 68 85 0.0 2.6 0.00 0.01 1.09 95 1016.4
20220523121119 68 114 1.7 2.6 0.00 0.01 1.08 95 1016.5
20220523120619 68 97 0.0 3.5 0.00 0.01 1.06 95 1016.5
20220523120119 68 127 0.9 4.3 0.00 0.01 1.04 95 1016.6
20220523115619 68 78 0.9 6.1 0.00 0.01 1.02 95 1016.6
20220523115119 68 80 1.7 4.3 0.00 0.01 1.00 95 1016.6
20220523114619 68 82 2.6 6.1 0.00 0.01 0.98 95 1016.4
20220523114119 68 80 4.3 5.2 0.00 0.01 0.96 94 1016.4
20220523113619 68 92 2.6 6.1 0.00 0.01 0.94 94 1016.4
20220523113119 68 76 0.0 5.2 0.00 0.01 0.91 94 1016.4
20220523112619 68 80 0.0 6.1 0.00 0.01 0.87 94 1016.4
20220523112120 68 49 0.9 5.2 0.00 0.01 0.84 94 1016.4
20220523111625 68 83 0.9 4.3 0.00 0.01 0.82 94 1016.4
20220523111119 68 58 2.6 6.1 0.00 0.01 0.79 94 1016.3
20220523110619 68 71 0.0 4.3 0.00 0.01 0.75 94 1016.2
20220523110119 68 79 0.0 5.2 0.00 0.01 0.73 94 1016.2
20220523105619 69 71 0.0 3.5 0.00 0.01 0.72 94 1016.1
20220523105119 68 92 1.7 3.5 0.00 0.01 0.71 94 1016.1
20220523104619 68 100 0.0 2.6 0.00 0.01 0.70 94 1016.1
20220523104119 68 103 0.0 4.3 0.00 0.01 0.69 94 1016.2
20220523103619 68 120 2.6 3.5 0.00 0.01 0.68 94 1016.3
20220523103119 68 44 0.0 5.2 0.00 0.01 0.68 94 1016.4
20220523102619 69 62 1.7 6.1 0.00 0.01 0.68 94 1016.5
20220523102119 68 51 1.7 5.2 0.00 0.01 0.67 94 1016.6
20220523101619 68 69 4.3 3.5 0.00 0.01 0.65 94 1016.7
20220523101119 69 35 1.7 2.6 0.00 0.01 0.64 94 1016.8
20220523100619 69 90 0.0 3.5 0.00 0.01 0.62 94 1016.8
20220523100119 69 99 0.9 1.7 0.00 0.01 0.61 94 1016.9
20220523095619 69 96 0.0 4.3 0.00 0.01 0.59 94 1017.1
20220523095119 69 71 0.0 3.5 0.00 0.01 0.57 94 1017.1
20220523094619 69 93 0.0 3.5 0.00 0.01 0.57 93 1017.2
20220523094119 69 85 0.9 4.3 0.00 0.01 0.56 93 1017.3
20220523093619 69 66 0.9 3.5 0.00 0.01 0.54 93 1017.4
20220523093119 69 97 1.7 1.7 0.00 0.01 0.52 93 1017.5
20220523092619 70 47 0.0 0.0 0.00 0.01 0.49 93 1017.6
20220523092120 70 0 0.0 0.0 0.00 0.01 0.48 93 1017.7
20220523091619 70 55 0.0 1.7 0.00 0.01 0.48 93 1017.8
20220523091119 70 64 0.0 0.9 0.00 0.01 0.47 93 1017.9
20220523090619 70 0 0.0 0.0 0.00 0.01 0.47 93 1017.9
20220523090119 70 76 0.0 1.7 0.00 0.01 0.46 93 1018.0
20220523085619 70 80 0.0 1.7 0.00 0.01 0.46 93 1018.1
20220523085119 70 0 0.0 0.0 0.00 0.01 0.46 93 1018.0
20220523084619 70 96 0.0 1.7 0.00 0.01 0.45 93 1018.0
20220523084119 70 30 1.7 0.9 0.00 0.01 0.45 93 1018.0
20220523083619 70 350 0.0 1.7 0.00 0.01 0.45 92 1018.0
20220523083119 70 80 0.0 1.7 0.00 0.01 0.45 92 1018.2
20220523082620 70 51 0.0 2.6 0.00 0.01 0.44 92 1018.2
20220523082119 70 328 0.0 2.6 0.00 0.01 0.43 92 1018.2
20220523081619 71 68 0.9 3.5 0.00 0.01 0.43 92 1018.5
20220523081119 71 35 0.9 1.7 0.00 0.01 0.41 92 1018.7
20220523080618 71 21 0.0 0.9 0.00 0.01 0.39 92 1018.7
20220523080119 71 56 0.0 2.6 0.00 0.01 0.37 92 1018.6
20220523075619 71 93 1.7 4.3 0.00 0.01 0.23 91 1018.7
20220523075118 72 47 1.7 4.3 0.00 0.01 0.17 91 1018.8
20220523074618 72 0 0.9 0.0 0.00 0.01 0.14 91 1019.0
20220523074118 72 0 0.0 0.0 0.00 0.01 0.12 91 1019.0
20220523073618 72 34 0.0 1.7 0.00 0.01 0.10 91 1018.9
20220523073118 72 75 0.9 3.5 0.00 0.01 0.09 91 1018.9
20220523072618 73 25 0.0 0.9 0.00 0.01 0.09 91 1019.0
20220523072118 73 102 0.0 1.7 0.00 0.01 0.08 91 1019.0
20220523071618 73 38 0.0 1.7 0.00 0.01 0.08 91 1019.0
20220523071118 73 1 0.9 1.7 0.00 0.01 0.07 90 1019.0
20220523070618 73 40 0.0 0.9 0.00 0.01 0.07 90 1019.2
20220523070118 73 0 0.0 0.0 0.00 0.01 0.05 90 1019.2
20220523065618 73 71 0.0 1.7 0.00 0.01 0.04 90 1019.1
20220523065120 73 27 0.0 0.0 0.00 0.01 0.04 90 1019.1
20220523064618 73 88 0.0 1.7 0.00 0.01 0.03 90 1019.0
20220523064118 73 0 0.0 0.0 0.00 0.01 0.03 90 1019.1
20220523063618 73 0 0.0 0.0 0.00 0.01 0.03 90 1019.2
20220523063118 73 0 0.0 0.0 0.00 0.01 0.02 89 1019.3
20220523062617 73 0 0.0 0.0 0.00 0.01 0.02 89 1019.3
20220523062118 74 0 0.0 0.0 0.00 0.01 0.01 89 1019.3
20220523061618 73 0 0.0 0.0 0.00 0.01 0.01 89 1019.4
20220523061118 73 0 0.0 0.0 0.00 0.01 0.01 89 1019.4
20220523060617 73 45 0.0 0.9 0.00 0.01 0.01 89 1019.4
20220523060117 73 0 0.0 0.0 0.00 0.01 0.01 89 1019.5
20220523055617 73 0 0.0 0.0 0.00 0.01 0.01 88 1019.5
20220523055117 73 0 0.0 0.0 0.00 0.01 0.01 88 1019.5
20220523054617 73 71 0.0 1.7 0.00 0.01 0.01 88 1019.4
20220523054117 73 330 0.9 2.6 0.00 0.01 0.01 88 1019.4
20220523053617 73 6 1.7 3.5 0.00 0.01 0.00 88 1019.2
20220523053117 74 337 1.7 2.6 0.00 0.01 0.00 88 1019.2
20220523052617 74 353 1.7 2.6 0.00 0.01 0.00 88 1019.4
20220523052117 74 337 1.7 2.6 0.00 0.01 0.00 88 1019.5
20220523051617 74 0 1.7 0.0 0.00 0.01 0.00 88 1019.6
20220523051117 74 0 0.0 0.0 0.00 0.01 0.00 87 1019.8
20220523050617 74 0 0.0 0.0 0.00 0.01 0.00 87 1019.9
20220523050117 74 0 0.0 0.0 0.00 0.01 0.00 86 1019.9
20220523045617 74 0 0.0 0.0 0.00 0.00 0.01 86 1019.8
20220523045117 74 0 0.0 0.0 0.00 0.00 0.01 86 1019.6
20220523044617 74 0 0.0 0.0 0.00 0.00 0.01 86 1019.5
20220523044117 74 133 0.0 1.7 0.00 0.00 0.01 85 1019.5
20220523043617 75 97 1.7 2.6 0.00 0.00 0.01 85 1019.5
20220523043117 75 95 0.0 0.9 0.00 0.00 0.01 84 1019.5
20220523042617 75 0 0.0 0.0 0.00 0.00 0.01 84 1019.5
20220523042117 75 102 0.0 1.7 0.00 0.00 0.01 83 1019.5
20220523041617 75 99 0.9 0.9 0.00 0.00 0.01 83 1019.6
20220523041117 75 103 0.0 1.7 0.00 0.00 0.01 83 1019.7
20220523040617 75 106 0.0 2.6 0.00 0.00 0.01 82 1019.7
20220523040117 75 106 2.6 1.7 0.00 0.00 0.01 82 1019.8
20220523035617 76 107 0.0 1.7 0.00 0.00 0.01 81 1019.9